AirNav   Pilot Hours Calculator
 
 476 users online  

42PA Ransome Heliport
Exton, Pennsylvania, USA

GOING TO EXTON?


FAA INFORMATION EFFECTIVE 15 JULY 2021

Location

FAA Identifier: 42PA
Lat/Long: 40-01-21.3850N 075-35-09.7470W
40-01.356417N 075-35.162450W
40.0226069,-75.5860408
(estimated)
Elevation: 575 ft. / 175 m (estimated)
Variation: 11W (1985)
From city: 1 mile NE of EXTON, PA
Time zone: UTC -4 (UTC -5 during Standard Time)
Zip code: 19355

Heliport Operations

Heliport use: Private use. Permission required prior to landing
Activation date: 06/1980
Control tower: no
ARTCC: NEW YORK CENTER
FSS: WILLIAMSPORT FLIGHT SERVICE STATION
Attendance: MON-FRI 0700-2330
Wind indicator: lighted
Segmented circle: no
Lights: SS-SR

Heliport Communications

UNICOM: 123.05
WX AWOS-3T at OQN (2.0 nm S): 121.4 ((610) 692-6190)
WX ASOS at PTW (13 nm N): 119.425 (610-495-0823)
WX AWOS-3 at MQS (13 nm W): 126.25 (610-384-6132)
WX AWOS-3 at LOM (16 nm NE): 118.925 (215-646-1068)
WX ASOS at PHL (18 nm SE): PHONE 215-492-9617
  • CLEARANCE DELIVERY PHILADELPHIA APCH TF 800-354-9884.

Nearby radio navigation aids

VOR radial/distance  VOR name  Freq  Var
MXEr041/7.4MODENA VORTAC113.2009W
PTWr195/12.0POTTSTOWN VORTAC116.5009W
DQOr013/20.7DUPONT VORTAC114.0010W
OODr341/26.6WOODSTOWN VORTAC112.8010W
LRPr109/32.9LANCASTER VOR/DME117.3009W
ETXr181/33.8EAST TEXAS VOR/DME110.2009W
ARDr256/34.1YARDLEY VOR/DME108.2010W

 
NDB name  Hdg/Dist  Freq  Var  ID
AMBLER258/15.127512WING .. -. --.

Heliport Services

Fuel available: A
Parking: hangars and tiedowns
Airframe service: MAJOR
Powerplant service: MAJOR

Runway Information

Helipad H1

Dimensions: 65 x 65 ft. / 20 x 20 m
Surface: asphalt, in good condition
Runway edge lights: PERI
Latitude: 40-01.356417N
Longitude: 075-35.162450W
Elevation: 575.0 ft.
Traffic pattern: leftleft

Heliport Ownership and Management from official FAA records

Ownership: Privately-owned
Owner: WLB PARTNERS
2975 GALLOWAY ROAD
BENSALEM, PA 19020
Phone 215-639-4300
Manager: CLAY C. BROMLEY
1420 PHOENIXVILLE PIKE
WEST CHESTER, PA 19380
Phone 215-245-3756

Heliport Operational Statistics

Aircraft operations: avg 34/week *
49% transient general aviation
49% local general aviation
1% military
* for 12-month period ending 30 May 2007

Additional Remarks

A52-H1 24 FT TREES 372 FT NW OF HELIPAD; +74 FT TREES 725 FT SOUTH OF HELIPAD.
INGRESS 120/315 DEG, EGRESS 300/135 DEG.
FREQ 128.95 AVBL FOR USE AT HELI.
FOR CD CTC PHILADELPHIA APCH AT 800-354-9884.

Instrument Procedures

There are no published instrument procedures at 42PA.

Some nearby airports with instrument procedures:

KOQN - Brandywine Regional Airport (2 nm S)
N10 - Perkiomen Valley Airport (13 nm NE)
KPTW - Heritage Field Airport (13 nm N)
KMQS - Chester County G O Carlson Airport (13 nm W)
N57 - New Garden Airport (14 nm SW)
N47 - Pottstown Municipal Airport (15 nm N)
KLOM - Wings Field Airport (16 nm NE)
KPHL - Philadelphia International Airport (18 nm SE)
7N7 - Spitfire Aerodrome (19 nm SE)
 
Loc | Ops | Rwys | IFR | FBO | Links
Com | Nav | Svcs | Stats | Notes
Aerial photo
No photo
 
Sectional chart

 
Airport distance calculator
Flying to Ransome Heliport? Find the distance to fly.

From to 42PA

Sunrise and sunset
Times for 31-Jul-2021
 Local
(UTC-4)
 Zulu
(UTC)
Morning civil twilight05:3009:30
Sunrise06:0110:01
Sunset20:1700:17
Evening civil twilight20:4700:47

Current date and time
Zulu (UTC)  31-Jul-2021 06:40:09
Local (UTC-4)  31-Jul-2021 02:40:09
 
METAR
KOQN 
2nm S 
310615Z AUTO 35005KT 10SM CLR 18/11 A3001 RMK AO2
KPTW 
13nm N 
310554Z AUTO 33003KT 10SM CLR 15/10 A3002 RMK AO2 SLP163 T01500100 10239 20139 51011 $
KMQS 
13nm W 
310615Z AUTO 01005KT 10SM CLR 17/11 A3002 RMK AO2
KLOM 
16nm NE 
310615Z AUTO 36003KT 10SM CLR 14/12 A3001 RMK AO2 T01370119
KPHL 
19nm SE 
310554Z 01011KT 10SM FEW250 20/09 A3000 RMK AO2 SLP158 T02000089 10272 20200 53015 $
TAF
KPHL 
19nm SE 
310521Z 3106/0112 01008KT P6SM SCT250 FM311300 32006KT P6SM SCT250 FM311600 27008KT P6SM FEW050 FM312300 24006KT P6SM SCT250 FM010200 VRB03KT P6SM SCT250
KILG 
21nm S 
310521Z 3106/0106 01006KT P6SM SCT250 FM311300 33004KT P6SM SCT250 FM311600 27006KT P6SM FEW050 FM312200 20006KT P6SM SCT250 FM010200 VRB03KT P6SM SCT250
NOTAMs
Click for the latest NOTAMs
NOTAMs are issued by the DoD/FAA and will open in a separate window not controlled by AirNav.

 

 
 

Would you like to see your business listed on this page?

 If your business provides an interesting product or service to pilots, flight crews, aircraft, or users of the Ransome Heliport, you should consider listing it here.  To start the listing process, click on the button below
 
Add a business
 

Other Pages about Ransome Heliport

Update a link
 
Copyright © AirNav, LLC. All rights reserved. Privacy Policy  Contact